TimeCDT,TemperatureF,Dew PointF,Humidity,Sea Level PressureIn,VisibilityMPH,Wind Direction,Wind SpeedMPH,Gust SpeedMPH,PrecipitationIn,Events,Conditions,WindDirDegrees,DateUTC
12:13 AM,28.4,28.4,100,29.72,2.5,NNE,11.5,-,N/A,Snow,Light Snow,30,2013-04-12 05:13:00
12:32 AM,28.4,28.4,100,29.72,1.8,NNE,12.7,-,N/A,Snow,Light Snow,30,2013-04-12 05:32:00
12:53 AM,28.4,28.4,100,29.73,0.8,NNE,11.5,-,N/A,Snow,Snow,30,2013-04-12 05:53:00
1:13 AM,28.4,28.4,100,29.72,1.0,NNE,9.2,-,N/A,Snow,Snow,20,2013-04-12 06:13:00
1:32 AM,28.4,28.4,100,29.71,1.5,NNE,9.2,-,N/A,Snow,Light Snow,30,2013-04-12 06:32:00
1:53 AM,28.4,28.4,100,29.71,2.5,NNE,8.1,-,N/A,Snow,Light Snow,30,2013-04-12 06:53:00
2:12 AM,28.4,28.4,100,29.71,3.0,NNE,8.1,-,N/A,Snow,Light Snow,20,2013-04-12 07:12:00
2:33 AM,28.4,28.4,100,29.71,5.0,North,8.1,-,N/A,Snow,Light Snow,10,2013-04-12 07:33:00
2:52 AM,28.4,28.4,100,29.71,5.0,NNE,9.2,-,N/A,Snow,Light Snow,20,2013-04-12 07:52:00
3:13 AM,28.4,26.6,93,29.71,7.0,North,9.2,-,N/A,,Overcast,10,2013-04-12 08:13:00
3:32 AM,28.4,26.6,93,29.71,5.0,North,9.2,-,N/A,,Overcast,10,2013-04-12 08:32:00
3:53 AM,28.4,26.6,93,29.71,7.0,North,6.9,-,N/A,,Overcast,360,2013-04-12 08:53:00
4:12 AM,28.4,26.6,93,29.71,3.0,North,6.9,-,N/A,Snow,Light Snow,360,2013-04-12 09:12:00
4:33 AM,28.4,26.6,93,29.71,1.5,North,6.9,-,N/A,Snow,Light Snow,360,2013-04-12 09:33:00
4:53 AM,28.4,26.6,93,29.71,2.0,North,8.1,-,N/A,Snow,Light Snow,360,2013-04-12 09:53:00
5:12 AM,28.4,26.6,93,29.71,4.0,North,6.9,-,N/A,,Overcast,350,2013-04-12 10:12:00
5:33 AM,28.4,26.6,93,29.71,2.5,North,6.9,-,N/A,,Overcast,350,2013-04-12 10:33:00
5:53 AM,28.4,26.6,93,29.71,3.0,North,6.9,-,N/A,Snow,Light Snow,350,2013-04-12 10:53:00
6:12 AM,28.4,28.4,100,29.71,1.8,NNW,6.9,-,N/A,Snow,Light Snow,330,2013-04-12 11:12:00
6:33 AM,28.4,28.4,100,29.70,2.5,NNW,6.9,-,N/A,Snow,Light Snow,330,2013-04-12 11:33:00
6:53 AM,28.4,28.4,100,29.70,1.2,NNW,6.9,-,N/A,Snow,Light Snow,340,2013-04-12 11:53:00
7:12 AM,28.4,28.4,100,29.70,1.0,NNW,6.9,-,N/A,Snow,Light Snow,340,2013-04-12 12:12:00
7:33 AM,28.4,28.4,100,29.71,1.2,NNW,6.9,-,N/A,Snow,Light Snow,330,2013-04-12 12:33:00
7:53 AM,28.4,28.4,100,29.71,1.0,NW,6.9,-,N/A,,Overcast,320,2013-04-12 12:53:00
8:12 AM,28.4,28.4,100,29.72,1.8,NW,6.9,-,N/A,,Overcast,320,2013-04-12 13:12:00
8:33 AM,28.4,28.4,100,29.72,2.0,NW,8.1,-,N/A,Snow,Light Snow,320,2013-04-12 13:33:00
8:53 AM,28.4,28.4,100,29.72,2.5,NNW,8.1,-,N/A,,Overcast,330,2013-04-12 13:53:00
9:12 AM,30.2,28.4,93,29.72,4.0,NNW,10.4,-,N/A,Snow,Light Snow,330,2013-04-12 14:12:00
9:53 AM,30.2,28.4,93,29.73,10.0,NNW,11.5,-,N/A,Snow,Light Snow,330,2013-04-12 14:53:00
10:12 AM,30.2,28.4,93,29.73,7.0,NNW,13.8,-,N/A,Snow,Light Snow,340,2013-04-12 15:12:00
10:33 AM,30.2,28.4,93,29.73,7.0,NNW,10.4,-,N/A,Snow,Light Snow,340,2013-04-12 15:33:00
10:52 AM,30.2,28.4,93,29.73,7.0,North,11.5,-,N/A,Snow,Light Snow,350,2013-04-12 15:52:00
11:13 AM,32.0,28.4,87,29.74,10.0,NNW,11.5,-,N/A,,Overcast,340,2013-04-12 16:13:00
11:33 AM,33.8,28.4,81,29.74,10.0,NNW,10.4,-,N/A,,Overcast,340,2013-04-12 16:33:00
11:52 AM,33.8,28.4,81,29.74,10.0,North,9.2,-,N/A,,Overcast,360,2013-04-12 16:52:00
12:13 PM,33.8,28.4,81,29.74,10.0,North,9.2,-,N/A,,Mostly Cloudy,360,2013-04-12 17:13:00
12:33 PM,33.8,28.4,81,29.75,10.0,NNW,9.2,-,N/A,,Overcast,330,2013-04-12 17:33:00
12:52 PM,33.8,28.4,81,29.75,10.0,NNW,8.1,-,N/A,,Mostly Cloudy,340,2013-04-12 17:52:00
1:13 PM,35.6,28.4,75,29.75,10.0,NNW,10.4,-,N/A,,Mostly Cloudy,330,2013-04-12 18:13:00
1:33 PM,35.6,28.4,75,29.76,10.0,WNW,9.2,-,N/A,,Overcast,300,2013-04-12 18:33:00
1:52 PM,35.6,28.4,75,29.76,5.0,WNW,9.2,-,N/A,Snow,Light Snow,300,2013-04-12 18:52:00
2:13 PM,35.6,28.4,75,29.76,5.0,NW,8.1,-,N/A,Snow,Light Snow,310,2013-04-12 19:13:00
2:33 PM,35.6,28.4,75,29.77,5.0,NNW,8.1,-,N/A,Snow,Light Snow,330,2013-04-12 19:33:00
2:52 PM,35.6,30.2,81,29.77,7.0,NNW,11.5,-,N/A,Snow,Light Snow,340,2013-04-12 19:52:00
3:13 PM,35.6,30.2,81,29.77,10.0,NW,10.4,-,N/A,Snow,Light Snow,320,2013-04-12 20:13:00
3:32 PM,35.6,28.4,75,29.77,10.0,NW,11.5,-,N/A,,Mostly Cloudy,320,2013-04-12 20:32:00
3:53 PM,35.6,28.4,75,29.78,10.0,NNW,12.7,-,N/A,Snow,Light Snow,330,2013-04-12 20:53:00
4:13 PM,35.6,28.4,75,29.78,10.0,NNW,12.7,-,N/A,,Mostly Cloudy,330,2013-04-12 21:13:00
4:32 PM,35.6,28.4,75,29.78,10.0,NNW,11.5,-,N/A,,Overcast,340,2013-04-12 21:32:00
4:53 PM,35.6,28.4,75,29.79,10.0,NW,10.4,-,N/A,,Mostly Cloudy,310,2013-04-12 21:53:00
5:13 PM,35.6,28.4,75,29.79,10.0,NW,10.4,-,N/A,,Overcast,310,2013-04-12 22:13:00
5:32 PM,33.8,28.4,81,29.80,10.0,NNW,10.4,-,N/A,Snow,Light Snow,330,2013-04-12 22:32:00
5:53 PM,33.8,28.4,81,29.80,10.0,NNW,10.4,-,N/A,,Mostly Cloudy,330,2013-04-12 22:53:00
6:12 PM,33.8,30.2,87,29.81,10.0,NW,10.4,-,N/A,,Mostly Cloudy,320,2013-04-12 23:12:00
6:33 PM,33.8,30.2,87,29.82,10.0,NW,9.2,-,N/A,,Overcast,310,2013-04-12 23:33:00
6:53 PM,33.8,30.2,87,29.82,10.0,NW,8.1,-,N/A,Snow,Light Snow,310,2013-04-12 23:53:00
7:12 PM,33.8,30.2,87,29.83,10.0,NW,6.9,-,N/A,Snow,Light Snow,310,2013-04-13 00:12:00
7:33 PM,33.8,30.2,87,29.83,10.0,NW,5.8,-,N/A,,Overcast,310,2013-04-13 00:33:00
7:53 PM,33.8,30.2,87,29.83,7.0,NW,8.1,-,N/A,Snow,Light Snow,310,2013-04-13 00:53:00
8:12 PM,32.0,30.2,93,29.83,3.0,NW,6.9,-,N/A,Snow,Light Snow,310,2013-04-13 01:12:00
8:33 PM,30.2,30.2,100,29.83,4.0,NW,5.8,-,N/A,Snow,Light Snow,310,2013-04-13 01:33:00
8:53 PM,30.2,30.2,100,29.84,4.0,NW,5.8,-,N/A,Snow,Light Snow,310,2013-04-13 01:53:00
9:12 PM,30.2,30.2,100,29.84,5.0,NW,5.8,-,N/A,Snow,Light Snow,310,2013-04-13 02:12:00
9:33 PM,30.2,30.2,100,29.85,7.0,NW,4.6,-,N/A,Snow,Light Snow,310,2013-04-13 02:33:00
9:53 PM,30.2,30.2,100,29.85,7.0,NW,3.5,-,N/A,Snow,Light Snow,320,2013-04-13 02:53:00
10:12 PM,30.2,30.2,100,29.85,10.0,NW,3.5,-,N/A,,Overcast,320,2013-04-13 03:12:00
10:33 PM,30.2,30.2,100,29.85,10.0,NW,3.5,-,N/A,,Overcast,320,2013-04-13 03:33:00
10:53 PM,30.2,30.2,100,29.85,10.0,NW,4.6,-,N/A,Snow,Light Snow,310,2013-04-13 03:53:00
11:12 PM,30.2,30.2,100,29.84,5.0,NW,4.6,-,N/A,Snow,Light Snow,310,2013-04-13 04:12:00
11:33 PM,30.2,30.2,100,29.85,10.0,WNW,5.8,-,N/A,,Overcast,300,2013-04-13 04:33:00
11:53 PM,30.2,30.2,100,29.85,7.0,WNW,5.8,-,N/A,,Overcast,300,2013-04-13 04:53:00